[[{"header":{"parameterUnit":"m.s-1","parameterCategory":1,"la1":30.2991,"la2":30.254,"lo1":-89.0895,"lo2":-89.0444,"dy":0.0017,"dx":0.0017,"nx":28,"ny":28,"refTime":"2024-05-08T03:00:00:Z","depth":0,"parameterNumber":2,"parameterNumberName":"U-component_of_WINDS"},"data":[0,0,0,0,0,0,0,0,0,0,0,0,0,0,0,0,0,0,0,0,0,0,0,0,0,0,0,0,0,0,0,0,0,0,0,0,0,0,0,0,0,0,0,0,0,0,0,0,0,0,0,0,0,0,0,0,0,0,-0.9977,-0.9977,0,-1.0007,-1.0007,-1.0007,-1.0018,-1.0018,-1.0018,-1.0018,-1.0048,-1.0049,-1.005,0,0,0,0,0,0,0,0,0,0,0,0,0,-0.993,-0.9931,-0.9977,-0.9978,-0.9978,-1.0007,-1.0007,-1.0008,-1.0018,-1.0018,-1.0018,-1.0018,-1.0048,-1.0049,-1.005,0,0,0,0,0,0,0,0,0,0,0,0,0,-0.9954,-0.9931,-0.9977,-0.9987,-0.9988,-1.0007,-1.0007,-1.0008,-1.0018,-1.0018,-1.0018,-1.0018,-1.0047,-1.0049,-1.005,-1.0061,0,0,-1.0054,-1.0055,0,0,0,0,0,0,0,0,-0.9953,-0.9956,-0.9985,-0.9986,-0.9987,-1.0009,-1.0002,-1.0026,-1.0018,-1.0007,-1.0018,-1.0018,-1.0035,-1.0037,-1.0043,-1.0063,-1.0064,-1.0054,-1.0055,-1.0056,-1.0056,0,0,0,0,0,0,0,-0.9951,-0.9955,-0.9989,-0.9985,-0.9987,-0.999,-0.9993,-1.0006,-1.0021,-1.0008,-1.0009,-1.0012,-1.0036,-1.0042,-1.0044,-1.0064,-1.0054,-1.0055,-1.0056,-1.0057,-1.0095,-1.0095,0,0,0,0,0,0,-0.9948,-0.9953,-0.9988,-0.999,-0.9969,-0.9991,-0.9994,-1.0002,-1.0021,-1.0024,-1.0012,-1.0012,-1.004,-1.0043,-1.0045,-1.006,-1.0056,-1.0057,-1.0058,-1.0095,-1.0095,-1.0096,0,0,0,0,0,0,-0.9947,-0.9951,-0.9987,-0.9972,-0.9977,-0.9992,-1.0,-1.0003,-1.0009,-1.0025,-1.0027,-1.0016,-1.004,-1.0043,-1.0057,-1.0061,-1.0058,-1.0059,-1.0095,-1.0095,-1.0095,-1.0089,0,0,0,0,0,0,-0.9945,-0.995,-0.9955,-0.9972,-0.9977,-0.9998,-1.0,-1.0003,-1.0011,-1.0012,-1.0029,-1.0031,-1.004,-1.0055,-1.0059,-1.0063,-1.006,-1.0095,-1.0095,-1.0095,-1.0089,-1.0089,-1.0089,0,0,0,0,0,-0.9944,-0.9952,-0.9955,-0.9959,-0.9983,-0.9999,-1.0002,-1.0012,-1.0012,-1.0016,-1.0026,-1.0031,-1.006,-1.0057,-1.0061,-1.0065,-1.0094,-1.0095,-1.0095,-1.0089,-1.0089,-1.0089,0,0,0,0,0,0,-0.9934,-0.9954,-0.9958,-0.9972,-0.9983,-1.0,-1.0006,-1.0011,-1.0023,-1.0023,-1.0035,-1.0039,-1.0052,-1.006,-1.0056,-1.0077,-1.0078,-1.0079,-1.0072,-1.0072,-1.0072,-1.007,-1.0061,0,0,0,0,0,-0.9934,-0.9945,-0.9962,-0.9972,-0.9978,-0.9991,-0.9998,-1.0005,-1.0017,-1.0022,-1.0034,-1.0046,-1.0058,-1.0065,-1.0077,-1.0091,-1.0095,-1.0096,-1.0096,-1.0096,-1.0097,-1.0105,-1.0106,-1.0097,-1.0097,-1.0097,0,0,-0.9933,-0.9945,-0.9951,-0.997,-0.998,-0.9992,-0.9995,-1.0007,-1.0015,-1.0024,-1.0038,-1.0047,-1.0061,-1.0075,-1.0082,-1.0082,-1.01,-1.0097,-1.0096,-1.0097,-1.0105,-1.0106,-1.0107,-1.0097,-1.0097,-1.0097,0,0,-0.9937,-0.9948,-0.9958,-0.9968,-0.9983,-0.9992,-0.9994,-1.001,-1.0017,-1.0031,-1.0038,-1.0048,-1.0069,-1.0079,-1.0086,-1.0095,-1.01,-1.0099,-1.0099,-1.0107,-1.0108,-1.0108,-1.0111,-1.0112,-1.01,-1.01,-1.01,0,-0.9934,-0.9951,-0.9962,-0.9973,-0.9982,-0.9991,-1.0001,-1.001,-1.0028,-1.0034,-1.0034,-1.0061,-1.0071,-1.0087,-1.0089,-1.0095,-1.0099,-1.0097,-1.0107,-1.0107,-1.0108,-1.0111,-1.0113,-1.0099,-1.0099,-1.0099,-1.0099,0,-0.9947,-0.9959,-0.9965,-0.9983,-0.9992,-1.0003,-1.0015,-1.0023,-1.0029,-1.0038,-1.0053,-1.0065,-1.008,-1.0085,-1.0091,-1.0102,-1.0102,-1.0104,-1.0105,-1.0109,-1.0112,-1.0113,-1.0099,-1.0099,-1.0099,-1.0099,0,0,-0.9946,-0.997,-0.9972,-0.998,-0.9997,-1.0007,-1.0018,-1.0033,-1.004,-1.0052,-1.0062,-1.0079,-1.0082,-1.0091,-1.0098,-1.0104,-1.0111,-1.0106,-1.0107,-1.0107,-1.0125,-1.0123,-1.0124,-1.0114,-1.0114,-1.0115,-1.0123,0,-0.9953,-0.9973,-0.9983,-1.0,-1.0011,-1.002,-1.003,-1.0042,-1.005,-1.0061,-1.0071,-1.0083,-1.0085,-1.0091,-1.0098,-1.0108,-1.0115,-1.0108,-1.0124,-1.0124,-1.0119,-1.0126,-1.0123,-1.0131,-1.0125,-1.0125,-1.0125,0,-0.9963,-0.9975,-0.9993,-1.0009,-1.0014,-1.0023,-1.0038,-1.0048,-1.0062,-1.0068,-1.0078,-1.0085,-1.0097,-1.0097,-1.0115,-1.011,-1.0117,-1.0123,-1.0124,-1.0125,-1.0125,-1.0127,-1.0134,-1.0135,-1.0127,-1.0127,-1.0127,0,-0.996,-0.9981,-0.9995,-1.0001,-1.0021,-1.0027,-1.0036,-1.0049,-1.0058,-1.007,-1.0076,-1.009,-1.0098,-1.0108,-1.0119,-1.0118,-1.0136,-1.0136,-1.0141,-1.0141,-1.0144,-1.0144,-1.0151,-1.0149,-1.0149,-1.0149,-1.0149,0,-0.9966,-0.9977,-0.9994,-1.0002,-1.0014,-1.0026,-1.0037,-1.0046,-1.0059,-1.0069,-1.0078,-1.0087,-1.0101,-1.0112,-1.012,-1.0134,-1.0137,-1.0142,-1.0144,-1.0142,-1.0141,-1.0146,-1.0146,-1.0149,-1.0149,-1.0149,-1.0149,0,-0.9965,-0.9977,-0.9992,-1.001,-1.0015,-1.0023,-1.0038,-1.0046,-1.0055,-1.0068,-1.0072,-1.0087,-1.01,-1.0112,-1.013,-1.0136,-1.015,-1.0152,-1.0145,-1.0146,-1.015,-1.015,-1.0162,-1.0164,-1.016,-1.016,-1.016,0,-0.9969,-0.9977,-0.9995,-1.0003,-1.0011,-1.0023,-1.0032,-1.0044,-1.0052,-1.0069,-1.0075,-1.009,-1.0102,-1.0123,-1.0136,-1.015,-1.0153,-1.0156,-1.0155,-1.0152,-1.0153,-1.0152,-1.0153,-1.0156,-1.0156,-1.0156,-1.0156,0,-0.9973,-0.9978,-0.999,-1.0005,-1.0015,-1.0027,-1.0039,-1.0044,-1.0059,-1.0068,-1.0082,-1.0092,-1.011,-1.0124,-1.014,-1.0149,-1.0155,-1.0156,-1.0158,-1.0155,-1.015,-1.0153,-1.0145,-1.0156,-1.0156,-1.0156,-1.0156,-1.0156,-0.9974,-0.9982,-0.9996,-1.0009,-1.002,-1.0031,-1.004,-1.005,-1.0063,-1.0079,-1.0085,-1.01,-1.0114,-1.0135,-1.0144,-1.0156,-1.0157,-1.0159,-1.016,-1.016,-1.016,-1.0149,-1.0158,-1.0158,-1.0158,-1.0158,-1.0158,0,-0.9979,-0.9989,-1.0001,-1.0017,-1.0028,-1.0033,-1.0047,-1.0055,-1.0068,-1.008,-1.0092,-1.0109,-1.0123,-1.0136,-1.0151,-1.0158,-1.0161,-1.0161,-1.0161,-1.0163,-1.0158,-1.0155,-1.0158,-1.0158,-1.0158,-1.0158,-1.0158,-1.0158,-0.9983,-0.9996,-1.0004,-1.0022,-1.0032,-1.0046,-1.0054,-1.0064,-1.0075,-1.0093,-1.0104,-1.0113,-1.0126,-1.0142,-1.0155,-1.0159,-1.0164,-1.0163,-1.0168,-1.0163,-1.0163,-1.0163,-1.016,-1.0164,-1.0164,-1.0171,-1.0171,-1.0172]},{"header":{"parameterUnit":"m.s-1","parameterCategory":1,"la1":30.2991,"la2":30.254,"lo1":-89.0895,"lo2":-89.0444,"dy":0.0017,"dx":0.0017,"nx":28,"ny":28,"refTime":"2024-05-08T03:00:00:Z","depth":0,"parameterNumber":3,"parameterNumberName":"V-component_of_WINDS"},"data":[0,0,0,0,0,0,0,0,0,0,0,0,0,0,0,0,0,0,0,0,0,0,0,0,0,0,0,0,0,0,0,0,0,0,0,0,0,0,0,0,0,0,0,0,0,0,0,0,0,0,0,0,0,0,0,0,0,0,4.8245,4.8246,0,4.8366,4.8367,4.8369,4.8349,4.8347,4.8345,4.8343,4.8462,4.8467,4.8472,0,0,0,0,0,0,0,0,0,0,0,0,0,4.799,4.7995,4.8244,4.8246,4.8248,4.8366,4.8367,4.8369,4.8349,4.8347,4.8344,4.8342,4.846,4.8466,4.8472,0,0,0,0,0,0,0,0,0,0,0,0,0,4.8105,4.7996,4.8244,4.8252,4.8254,4.8365,4.8367,4.837,4.835,4.8347,4.8344,4.8341,4.8458,4.8466,4.8473,4.8583,0,0,4.8497,4.85,0,0,0,0,0,0,0,0,4.8098,4.8114,4.8249,4.8252,4.8254,4.8339,4.8321,4.8441,4.8351,4.8313,4.8343,4.8339,4.8423,4.8433,4.8463,4.8588,4.8593,4.8497,4.8502,4.8505,4.8507,0,0,0,0,0,0,0,4.809,4.8109,4.8292,4.8251,4.8254,4.8248,4.8261,4.8344,4.8384,4.8316,4.8315,4.833,4.8424,4.8456,4.8466,4.8595,4.8497,4.8504,4.8508,4.8511,4.8816,4.882,0,0,0,0,0,0,4.8081,4.8102,4.8288,4.8296,4.8167,4.8255,4.8269,4.8315,4.8383,4.8391,4.8333,4.8329,4.8444,4.8457,4.847,4.8603,4.8505,4.8512,4.8517,4.8813,4.8817,4.8821,0,0,0,0,0,0,4.8076,4.8098,4.8284,4.8199,4.8222,4.8263,4.8314,4.8319,4.8351,4.8396,4.8402,4.8358,4.8442,4.8459,4.8555,4.8606,4.8516,4.8523,4.8809,4.8814,4.8819,4.8869,0,0,0,0,0,0,4.8068,4.8096,4.8139,4.82,4.8227,4.8369,4.8317,4.8324,4.8365,4.8361,4.8421,4.8428,4.8441,4.8544,4.8563,4.8615,4.8529,4.8804,4.8811,4.8817,4.8863,4.8876,4.8886,0,0,0,0,0,4.8059,4.8148,4.8142,4.8164,4.8282,4.8372,4.8387,4.8401,4.8369,4.8412,4.8441,4.8426,4.8598,4.8554,4.8575,4.8631,4.8801,4.8809,4.8817,4.8858,4.8873,4.8886,0,0,0,0,0,0,4.809,4.8156,4.815,4.8261,4.8311,4.8368,4.8423,4.8417,4.8476,4.847,4.8483,4.8497,4.8595,4.8622,4.8572,4.874,4.8695,4.8707,4.8719,4.8734,4.8745,4.8736,4.8535,0,0,0,0,0,4.811,4.8179,4.8232,4.8325,4.835,4.8383,4.8422,4.8429,4.8481,4.8502,4.8537,4.8587,4.8652,4.8694,4.8756,4.8867,4.8879,4.8916,4.8927,4.8936,4.8947,4.9007,4.9024,4.8847,4.8847,4.8846,0,0,4.8151,4.8196,4.8238,4.8332,4.8372,4.8441,4.8401,4.8476,4.8527,4.8512,4.8606,4.8634,4.869,4.8794,4.8841,4.882,4.8998,4.8946,4.8953,4.8959,4.9017,4.9033,4.9048,4.8852,4.8851,4.885,0,0,4.8262,4.8303,4.8385,4.8426,4.8488,4.8508,4.8528,4.8587,4.8605,4.87,4.869,4.875,4.8862,4.8902,4.8937,4.9064,4.9052,4.9083,4.9143,4.9202,4.9216,4.9228,4.9273,4.9289,4.9094,4.9094,4.9094,0,4.8305,4.8412,4.8427,4.8504,4.8545,4.8537,4.8619,4.8657,4.8735,4.8763,4.8738,4.8878,4.8915,4.9028,4.9059,4.9088,4.911,4.9077,4.9213,4.9225,4.9237,4.928,4.9297,4.9097,4.9097,4.9097,4.9096,0,4.8462,4.8535,4.8594,4.8671,4.8719,4.8798,4.8824,4.8869,4.8872,4.8895,4.8991,4.9035,4.9106,4.9133,4.9136,4.9247,4.9232,4.921,4.9164,4.9257,4.9298,4.9314,4.9102,4.9101,4.91,4.9099,0,0,4.8595,4.8681,4.8702,4.8737,4.8804,4.8861,4.8938,4.901,4.9049,4.9102,4.9167,4.9262,4.9243,4.9282,4.9289,4.9341,4.9438,4.9312,4.9314,4.9334,4.9562,4.9578,4.9597,4.9431,4.9434,4.9436,4.9557,0,4.8712,4.8853,4.8869,4.8993,4.906,4.9053,4.9121,4.9168,4.9192,4.9251,4.9276,4.9344,4.9313,4.9337,4.9387,4.9415,4.9484,4.9407,4.949,4.9493,4.9476,4.9618,4.9636,4.9748,4.9573,4.9576,4.9578,0,4.8868,4.8929,4.906,4.9118,4.9147,4.9208,4.9274,4.9332,4.9385,4.9398,4.9443,4.9443,4.9522,4.9474,4.9582,4.9529,4.9564,4.9583,4.9587,4.9595,4.9541,4.963,4.9784,4.9801,4.9603,4.9601,4.9599,0,4.8953,4.9066,4.916,4.919,4.9259,4.9302,4.9333,4.9383,4.9425,4.9483,4.951,4.9575,4.961,4.966,4.9677,4.9641,4.9784,4.9737,4.9797,4.9796,4.9827,4.9825,4.9989,4.985,4.985,4.9849,4.9849,0,4.9082,4.9162,4.9198,4.9256,4.9345,4.9362,4.945,4.9478,4.9523,4.9584,4.9581,4.9639,4.9658,4.9718,4.9732,4.9819,4.9835,4.9847,4.985,4.9848,4.9846,4.9871,4.9863,4.9854,4.9853,4.9852,4.9851,0,4.9191,4.9219,4.932,4.9378,4.9395,4.9458,4.9507,4.9561,4.9584,4.9662,4.9681,4.9716,4.9787,4.9809,4.9894,4.9903,5.0005,5.0001,4.9988,4.9988,5.0046,5.004,5.0231,5.0257,5.0101,5.0102,5.0104,0,4.9272,4.9334,4.94,4.9442,4.9475,4.9542,4.9585,4.9603,4.9648,4.9713,4.976,4.983,4.9888,5.0001,5.0033,5.0097,5.0094,5.0157,5.0104,5.01,5.0095,5.0091,5.0097,5.0167,5.0168,5.017,5.0171,0,4.9413,4.9423,4.9487,4.9555,4.9607,4.9661,4.9713,4.9747,4.9773,4.9823,4.9896,4.9941,5.0028,5.0098,5.0164,5.0193,5.0186,5.0187,5.0204,5.0203,5.0193,5.0199,5.0015,5.0183,5.0181,5.018,5.018,5.0179,4.951,4.9565,4.962,4.969,4.9732,4.9781,4.9835,4.9865,4.9927,5.0001,5.0007,5.0086,5.0137,5.0225,5.0258,5.0319,5.0301,5.0326,5.0332,5.0338,5.0343,5.0183,5.0331,5.0331,5.033,5.033,5.033,0,4.9651,4.9686,4.9751,4.9824,4.9879,4.987,4.9927,4.9973,5.0043,5.0092,5.0149,5.0233,5.03,5.0338,5.0405,5.0446,5.0445,5.0463,5.046,5.0467,5.0355,5.0333,5.0463,5.0463,5.0463,5.0463,5.0463,5.0463,4.9731,4.9823,4.984,4.9952,4.9986,5.0065,5.0098,5.0143,5.0182,5.0276,5.0333,5.0358,5.0402,5.0472,5.0533,5.0542,5.0567,5.0587,5.0594,5.0489,5.0475,5.0462,5.0442,5.0592,5.0593,5.0701,5.0702,5.0703]}]]